| time (UTC) | temp F | wind direction | speed knots | gust knots | rain 1hr in | rain 24hr in | rain mn in | humidity % | barometer mb |
| 20260906225338 | 97 | 117 | 4.3 | 8.7 | 0.00 | 0.00 | 0.00 | 37 | 941.8 |
| 20260906224836 | 98 | 73 | 4.3 | 10.4 | 0.00 | 0.00 | 0.00 | 37 | 941.8 |
| 20260906224337 | 98 | 148 | 4.3 | 10.4 | 0.00 | 0.00 | 0.00 | 37 | 941.7 |
| 20260906223837 | 98 | 163 | 4.3 | 10.4 | 0.00 | 0.00 | 0.00 | 38 | 941.8 |
| 20260906222837 | 98 | 161 | 6.1 | 12.2 | 0.00 | 0.00 | 0.00 | 37 | 942.0 |
| 20260906221337 | 99 | 123 | 1.7 | 11.3 | 0.00 | 0.00 | 0.00 | 36 | 942.1 |
| 20260906220836 | 98 | 166 | 1.7 | 7.0 | 0.00 | 0.00 | 0.00 | 40 | 942.0 |
| 20260906220337 | 97 | 117 | 3.5 | 8.7 | 0.00 | 0.00 | 0.00 | 38 | 942.1 |
| 20260906220054 | 96 | 160 | 4.3 | 9.6 | 0.00 | 0.00 | 0.00 | 39 | 942.2 |
| 20260906215333 | 95 | 141 | 4.3 | 9.6 | 0.00 | 0.00 | 0.00 | 39 | 942.2 |
| 20260906214330 | 95 | 76 | 7.0 | 11.3 | 0.00 | 0.00 | 0.00 | 40 | 942.3 |
| 20260906213830 | 95 | 109 | 7.0 | 13.0 | 0.00 | 0.00 | 0.00 | 40 | 942.3 |
| 20260906213331 | 95 | 82 | 6.1 | 15.6 | 0.00 | 0.00 | 0.00 | 39 | 942.3 |
| 20260906212831 | 96 | 121 | 4.3 | 15.6 | 0.00 | 0.00 | 0.00 | 39 | 942.4 |
| 20260906212331 | 96 | 101 | 3.5 | 9.6 | 0.00 | 0.00 | 0.00 | 38 | 942.5 |
| 20260906211830 | 97 | 180 | 3.5 | 8.7 | 0.00 | 0.00 | 0.00 | 37 | 942.5 |
| 20260906211600 | 97 | 184 | 4.3 | 8.7 | 0.00 | 0.00 | 0.00 | 37 | 942.5 |
| 20260906211047 | 96 | 157 | 4.3 | 8.7 | 0.00 | 0.00 | 0.00 | 40 | 942.6 |
| 20260906210326 | 95 | 157 | 5.2 | 8.7 | 0.00 | 0.00 | 0.00 | 39 | 942.7 |
| 20260906205826 | 95 | 63 | 5.2 | 8.7 | 0.00 | 0.00 | 0.00 | 40 | 942.8 |
| 20260906205327 | 96 | 49 | 3.5 | 8.7 | 0.00 | 0.00 | 0.00 | 40 | 942.9 |
| 20260906204827 | 96 | 114 | 3.5 | 7.8 | 0.00 | 0.00 | 0.00 | 39 | 942.9 |
| 20260906204326 | 96 | 100 | 4.3 | 12.2 | 0.00 | 0.00 | 0.00 | 39 | 943.0 |
| 20260906203826 | 96 | 123 | 4.3 | 12.2 | 0.00 | 0.00 | 0.00 | 39 | 943.0 |
| 20260906203327 | 96 | 355 | 3.5 | 9.6 | 0.00 | 0.00 | 0.00 | 38 | 942.9 |
| 20260906202826 | 96 | 102 | 4.3 | 9.6 | 0.00 | 0.00 | 0.00 | 38 | 943.0 |
| 20260906202536 | 97 | 87 | 3.5 | 9.6 | 0.00 | 0.00 | 0.00 | 38 | 943.1 |
| 20260906201814 | 98 | 169 | 3.5 | 10.4 | 0.00 | 0.00 | 0.00 | 37 | 943.1 |
| 20260906201308 | 98 | 205 | 5.2 | 10.4 | 0.00 | 0.00 | 0.00 | 38 | 943.1 |
| 20260906200801 | 98 | 155 | 4.3 | 10.4 | 0.00 | 0.00 | 0.00 | 37 | 943.1 |
| 20260906200255 | 98 | 172 | 4.3 | 10.4 | 0.00 | 0.00 | 0.00 | 41 | 943.2 |
| 20260906195749 | 96 | 151 | 6.1 | 11.3 | 0.00 | 0.00 | 0.00 | 40 | 943.4 |
| 20260906195243 | 96 | 110 | 5.2 | 11.3 | 0.00 | 0.00 | 0.00 | 40 | 943.5 |
| 20260906195009 | 96 | 199 | 5.2 | 9.6 | 0.00 | 0.00 | 0.00 | 40 | 943.5 |
| 20260906194232 | 96 | 124 | 7.0 | 11.3 | 0.00 | 0.00 | 0.00 | 39 | 943.6 |
| 20260906193726 | 97 | 92 | 4.3 | 11.3 | 0.00 | 0.00 | 0.00 | 40 | 943.6 |
| 20260906193220 | 97 | 75 | 3.5 | 9.6 | 0.00 | 0.00 | 0.00 | 40 | 943.6 |
| 20260906192714 | 97 | 117 | 4.3 | 10.4 | 0.00 | 0.00 | 0.00 | 40 | 943.8 |
| 20260906192208 | 97 | 93 | 4.3 | 10.4 | 0.00 | 0.00 | 0.00 | 41 | 943.8 |
| 20260906191702 | 96 | 147 | 4.3 | 10.4 | 0.00 | 0.00 | 0.00 | 40 | 943.9 |
| 20260906191156 | 96 | 16 | 6.1 | 11.3 | 0.00 | 0.00 | 0.00 | 42 | 944.0 |
| 20260906190650 | 96 | 113 | 7.8 | 12.2 | 0.00 | 0.00 | 0.00 | 41 | 944.1 |
| 20260906190143 | 96 | 85 | 6.1 | 12.2 | 0.00 | 0.00 | 0.00 | 41 | 944.0 |
| 20260906185903 | 97 | 80 | 5.2 | 13.9 | 0.00 | 0.00 | 0.00 | 40 | 944.0 |
| 20260906185132 | 96 | 145 | 5.2 | 13.9 | 0.00 | 0.00 | 0.00 | 40 | 944.1 |
| 20260906184626 | 95 | 168 | 4.3 | 10.4 | 0.00 | 0.00 | 0.00 | 41 | 944.2 |
| 20260906184120 | 95 | 123 | 4.3 | 10.4 | 0.00 | 0.00 | 0.00 | 43 | 944.3 |
| 20260906183614 | 95 | 190 | 3.5 | 10.4 | 0.00 | 0.00 | 0.00 | 41 | 944.4 |
| 20260906183108 | 96 | 148 | 2.6 | 7.0 | 0.00 | 0.00 | 0.00 | 43 | 944.5 |
| 20260906182602 | 95 | 195 | 4.3 | 11.3 | 0.00 | 0.00 | 0.00 | 45 | 944.5 |
| 20260906182055 | 95 | 111 | 5.2 | 11.3 | 0.00 | 0.00 | 0.00 | 47 | 944.6 |
| 20260906181549 | 94 | 98 | 4.3 | 11.3 | 0.00 | 0.00 | 0.00 | 43 | 944.7 |
| 20260906181043 | 95 | 34 | 3.5 | 7.8 | 0.00 | 0.00 | 0.00 | 42 | 944.7 |
| 20260906180537 | 94 | 53 | 2.6 | 7.0 | 0.00 | 0.00 | 0.00 | 44 | 944.8 |
| 20260906180031 | 93 | 10 | 3.5 | 7.8 | 0.00 | 0.00 | 0.00 | 45 | 945.0 |
| 20260906175526 | 93 | 90 | 5.2 | 9.6 | 0.00 | 0.00 | 0.00 | 46 | 945.1 |
| 20260906175020 | 94 | 76 | 5.2 | 9.6 | 0.00 | 0.00 | 0.00 | 44 | 945.2 |
| 20260906174514 | 95 | 70 | 5.2 | 10.4 | 0.00 | 0.00 | 0.00 | 44 | 945.3 |
| 20260906174007 | 95 | 78 | 6.1 | 10.4 | 0.00 | 0.00 | 0.00 | 42 | 945.4 |
| 20260906173502 | 95 | 58 | 3.5 | 10.4 | 0.00 | 0.00 | 0.00 | 48 | 945.5 |
| 20260906172955 | 95 | 5 | 3.5 | 7.8 | 0.00 | 0.00 | 0.00 | 46 | 945.5 |
| 20260906172449 | 94 | 130 | 5.2 | 10.4 | 0.00 | 0.00 | 0.00 | 44 | 945.5 |
| 20260906171944 | 94 | 86 | 5.2 | 10.4 | 0.00 | 0.00 | 0.00 | 45 | 945.6 |
| 20260906171438 | 94 | 29 | 5.2 | 8.7 | 0.00 | 0.00 | 0.00 | 46 | 945.6 |
| 20260906170932 | 94 | 88 | 6.1 | 12.2 | 0.00 | 0.00 | 0.00 | 45 | 945.7 |
| 20260906170426 | 94 | 113 | 5.2 | 12.2 | 0.00 | 0.00 | 0.00 | 46 | 945.6 |
| 20260906165920 | 93 | 111 | 4.3 | 13.0 | 0.00 | 0.00 | 0.00 | 47 | 945.7 |
| 20260906165414 | 94 | 136 | 5.2 | 13.0 | 0.00 | 0.00 | 0.00 | 47 | 945.7 |
| 20260906164908 | 93 | 117 | 7.0 | 13.9 | 0.00 | 0.00 | 0.00 | 44 | 945.8 |
| 20260906164401 | 93 | 143 | 7.0 | 13.9 | 0.00 | 0.00 | 0.00 | 46 | 945.9 |
| 20260906163855 | 92 | 105 | 7.0 | 12.2 | 0.00 | 0.00 | 0.00 | 47 | 945.9 |
| 20260906163349 | 92 | 79 | 6.1 | 12.2 | 0.00 | 0.00 | 0.00 | 46 | 945.9 |
| 20260906162844 | 93 | 36 | 3.5 | 8.7 | 0.00 | 0.00 | 0.00 | 46 | 945.8 |
| 20260906162338 | 92 | 325 | 3.5 | 8.7 | 0.00 | 0.00 | 0.00 | 46 | 945.9 |
| 20260906161832 | 92 | 128 | 2.6 | 8.7 | 0.00 | 0.00 | 0.00 | 47 | 945.9 |
| 20260906161326 | 92 | 79 | 2.6 | 7.0 | 0.00 | 0.00 | 0.00 | 46 | 945.9 |
| 20260906160820 | 92 | 42 | 3.5 | 7.0 | 0.00 | 0.00 | 0.00 | 50 | 945.9 |
| 20260906160314 | 92 | 93 | 2.6 | 6.1 | 0.00 | 0.00 | 0.00 | 48 | 945.9 |
| 20260906155807 | 92 | 149 | 1.7 | 4.3 | 0.00 | 0.00 | 0.00 | 50 | 945.9 |
| 20260906155301 | 91 | 166 | 1.7 | 3.5 | 0.00 | 0.00 | 0.00 | 53 | 945.8 |
| 20260906155015 | 91 | 121 | 2.6 | 4.3 | 0.00 | 0.00 | 0.00 | 52 | 945.9 |
| 20260906154250 | 91 | 192 | 1.7 | 4.3 | 0.00 | 0.00 | 0.00 | 54 | 945.9 |
| 20260906153743 | 90 | 119 | 1.7 | 3.5 | 0.00 | 0.00 | 0.00 | 54 | 945.8 |
| 20260906153238 | 90 | 84 | 0.9 | 3.5 | 0.00 | 0.00 | 0.00 | 54 | 945.9 |
| 20260906152731 | 90 | 217 | 1.7 | 3.5 | 0.00 | 0.00 | 0.00 | 56 | 945.8 |
| 20260906152225 | 90 | 253 | 0.9 | 3.5 | 0.00 | 0.00 | 0.00 | 55 | 945.7 |
| 20260906151936 | 89 | 317 | 1.7 | 3.5 | 0.00 | 0.00 | 0.00 | 58 | 945.7 |
| 20260906151214 | 89 | 300 | 1.7 | 3.5 | 0.00 | 0.00 | 0.00 | 59 | 945.7 |
| 20260906150708 | 88 | 321 | 0.9 | 2.6 | 0.00 | 0.00 | 0.00 | 60 | 945.7 |
| 20260906150202 | 88 | 223 | 1.7 | 4.3 | 0.00 | 0.00 | 0.00 | 60 | 945.6 |
| 20260906145656 | 87 | 241 | 1.7 | 4.3 | 0.00 | 0.00 | 0.00 | 59 | 945.6 |
| 20260906145149 | 87 | 300 | 1.7 | 4.3 | 0.00 | 0.00 | 0.00 | 60 | 945.7 |
| 20260906144643 | 87 | 267 | 0.9 | 4.3 | 0.00 | 0.00 | 0.00 | 61 | 945.6 |
| 20260906144403 | 86 | 279 | 0.9 | 3.5 | 0.00 | 0.00 | 0.00 | 60 | 945.6 |
| 20260906143641 | 85 | 313 | 0.9 | 2.6 | 0.00 | 0.00 | 0.00 | 65 | 945.7 |
| 20260906143406 | 84 | 281 | 0.9 | 4.3 | 0.00 | 0.00 | 0.00 | 65 | 945.7 |
| 20260906142642 | 84 | 257 | 1.7 | 5.2 | 0.00 | 0.00 | 0.00 | 64 | 945.8 |
| 20260906142142 | 83 | 239 | 2.6 | 5.2 | 0.00 | 0.00 | 0.00 | 65 | 945.8 |
| 20260906141642 | 83 | 199 | 1.7 | 4.3 | 0.00 | 0.00 | 0.00 | 66 | 945.8 |
| 20260906141139 | 82 | 169 | 1.7 | 4.3 | 0.00 | 0.00 | 0.00 | 66 | 945.7 |
| 20260906140640 | 81 | 190 | 1.7 | 4.3 | 0.00 | 0.00 | 0.00 | 66 | 945.7 |
| 20260906140141 | 81 | 177 | 0.9 | 3.5 | 0.00 | 0.00 | 0.00 | 68 | 945.7 |
| 20260906135640 | 80 | 167 | 0.0 | 2.6 | 0.00 | 0.00 | 0.00 | 68 | 945.6 |
| 20260906134137 | 78 | 206 | 0.0 | 0.0 | 0.00 | 0.00 | 0.00 | 71 | 945.6 |
| 20260906133638 | 77 | 163 | 0.0 | 0.0 | 0.00 | 0.00 | 0.00 | 74 | 945.7 |
| 20260906132138 | 74 | 97 | 0.0 | 0.0 | 0.00 | 0.00 | 0.00 | 79 | 945.7 |
| 20260906131358 | 72 | 97 | 0.0 | 0.0 | 0.00 | 0.00 | 0.00 | 81 | 945.6 |
| 20260906130858 | 72 | 97 | 0.0 | 0.0 | 0.00 | 0.00 | 0.00 | 82 | 945.5 |
| 20260906130136 | 71 | 97 | 0.0 | 0.0 | 0.00 | 0.00 | 0.00 | 83 | 945.5 |
| 20260906125636 | 70 | 97 | 0.0 | 0.0 | 0.00 | 0.00 | 0.00 | 84 | 945.3 |
| 20260906125136 | 70 | 97 | 0.0 | 0.0 | 0.00 | 0.00 | 0.00 | 84 | 945.2 |
| 20260906123632 | 70 | 97 | 0.0 | 0.0 | 0.00 | 0.00 | 0.00 | 83 | 945.0 |
| 20260906123131 | 70 | 97 | 0.0 | 0.0 | 0.00 | 0.00 | 0.00 | 83 | 944.9 |
| 20260906122632 | 70 | 97 | 0.0 | 0.0 | 0.00 | 0.00 | 0.00 | 83 | 944.8 |
| 20260906122132 | 69 | 97 | 0.0 | 0.0 | 0.00 | 0.00 | 0.00 | 83 | 944.8 |
| 20260906121632 | 69 | 117 | 0.0 | 0.0 | 0.00 | 0.00 | 0.00 | 84 | 944.7 |
| 20260906121131 | 70 | 117 | 0.0 | 0.0 | 0.00 | 0.00 | 0.00 | 84 | 944.7 |
| 20260906120854 | 69 | 117 | 0.0 | 0.0 | 0.00 | 0.00 | 0.00 | 83 | 944.7 |
| 20260906120129 | 69 | 117 | 0.0 | 0.0 | 0.00 | 0.00 | 0.00 | 82 | 944.6 |
| 20260906115854 | 70 | 117 | 0.0 | 0.0 | 0.00 | 0.00 | 0.00 | 82 | 944.6 |
| 20260906115116 | 70 | 117 | 0.0 | 0.0 | 0.00 | 0.00 | 0.00 | 82 | 944.5 |
| 20260906114611 | 70 | 117 | 0.0 | 0.0 | 0.00 | 0.00 | 0.00 | 81 | 944.5 |
| 20260906114104 | 70 | 117 | 0.0 | 0.0 | 0.00 | 0.00 | 0.00 | 81 | 944.4 |
| 20260906113559 | 70 | 117 | 0.0 | 0.0 | 0.00 | 0.00 | 0.00 | 81 | 944.3 |
| 20260906113314 | 70 | 117 | 0.0 | 0.0 | 0.00 | 0.00 | 0.00 | 81 | 944.4 |
| 20260906112547 | 70 | 117 | 0.0 | 0.0 | 0.00 | 0.00 | 0.00 | 81 | 944.5 |
| 20260906112311 | 70 | 117 | 0.0 | 0.0 | 0.00 | 0.00 | 0.00 | 81 | 944.5 |
| 20260906111801 | 70 | 117 | 0.0 | 0.0 | 0.00 | 0.00 | 0.00 | 80 | 944.4 |
| 20260906111029 | 70 | 117 | 0.0 | 0.0 | 0.00 | 0.00 | 0.00 | 80 | 944.3 |
| 20260906110523 | 71 | 117 | 0.0 | 0.0 | 0.00 | 0.00 | 0.00 | 80 | 944.3 |
| 20260906110017 | 71 | 117 | 0.0 | 1.7 | 0.00 | 0.00 | 0.00 | 81 | 944.3 |
| 20260906105511 | 71 | 117 | 0.9 | 3.5 | 0.00 | 0.00 | 0.00 | 79 | 944.2 |
| 20260906105005 | 71 | 117 | 0.9 | 3.5 | 0.00 | 0.00 | 0.00 | 80 | 944.1 |
| 20260906104458 | 71 | 117 | 0.0 | 3.5 | 0.00 | 0.00 | 0.00 | 81 | 944.2 |
| 20260906103959 | 71 | 101 | 0.0 | 0.0 | 0.00 | 0.00 | 0.00 | 83 | 944.2 |
| 20260906103459 | 71 | 84 | 0.0 | 0.0 | 0.00 | 0.00 | 0.00 | 80 | 944.1 |
| 20260906103000 | 71 | 84 | 0.0 | 0.0 | 0.00 | 0.00 | 0.00 | 80 | 944.1 |
| 20260906095951 | 71 | 97 | 0.0 | 0.9 | 0.00 | 0.00 | 0.00 | 81 | 944.0 |
| 20260906095449 | 71 | 97 | 0.0 | 0.0 | 0.00 | 0.00 | 0.00 | 81 | 943.9 |
| 20260906094947 | 71 | 97 | 0.0 | 0.0 | 0.00 | 0.00 | 0.00 | 79 | 943.9 |
| 20260906094445 | 71 | 97 | 0.0 | 0.0 | 0.00 | 0.00 | 0.00 | 79 | 943.9 |
| 20260906093943 | 71 | 97 | 0.0 | 0.0 | 0.00 | 0.00 | 0.00 | 80 | 943.9 |
| 20260906093441 | 71 | 97 | 0.0 | 0.9 | 0.00 | 0.00 | 0.00 | 80 | 943.9 |
| 20260906092941 | 71 | 97 | 0.0 | 0.9 | 0.00 | 0.00 | 0.00 | 80 | 944.0 |
| 20260906092438 | 71 | 97 | 0.9 | 1.7 | 0.00 | 0.00 | 0.00 | 78 | 944.0 |
| 20260906091935 | 71 | 97 | 0.9 | 1.7 | 0.00 | 0.00 | 0.00 | 79 | 943.9 |
| 20260906091439 | 71 | 97 | 0.0 | 1.7 | 0.00 | 0.00 | 0.00 | 79 | 943.8 |
| 20260906085931 | 72 | 125 | 0.0 | 0.0 | 0.00 | 0.00 | 0.00 | 77 | 943.8 |
| 20260906085136 | 72 | 125 | 0.0 | 0.0 | 0.00 | 0.00 | 0.00 | 76 | 943.8 |
| 20260906084413 | 72 | 125 | 0.0 | 0.0 | 0.00 | 0.00 | 0.00 | 77 | 943.8 |
| 20260906084127 | 72 | 125 | 0.0 | 0.0 | 0.00 | 0.00 | 0.00 | 74 | 943.8 |
| 20260906083400 | 72 | 125 | 0.0 | 0.0 | 0.00 | 0.00 | 0.00 | 74 | 943.8 |
| 20260906082854 | 73 | 125 | 0.0 | 0.9 | 0.00 | 0.00 | 0.00 | 74 | 943.7 |
| 20260906081553 | 73 | 125 | 0.9 | 2.6 | 0.00 | 0.00 | 0.00 | 73 | 943.6 |
| 20260906080324 | 73 | 138 | 0.9 | 2.6 | 0.00 | 0.00 | 0.00 | 73 | 943.7 |
| 20260906075818 | 74 | 130 | 0.0 | 1.7 | 0.00 | 0.00 | 0.00 | 71 | 943.7 |
| 20260906075312 | 74 | 109 | 0.0 | 0.9 | 0.00 | 0.00 | 0.00 | 71 | 943.8 |
| 20260906074806 | 74 | 109 | 0.0 | 0.9 | 0.00 | 0.00 | 0.00 | 70 | 943.8 |
| 20260906074300 | 74 | 109 | 0.9 | 2.6 | 0.00 | 0.00 | 0.00 | 70 | 943.9 |
| 20260906073755 | 74 | 109 | 1.7 | 2.6 | 0.00 | 0.00 | 0.00 | 70 | 943.9 |
| 20260906073249 | 74 | 100 | 1.7 | 3.5 | 0.00 | 0.00 | 0.00 | 70 | 944.0 |
| 20260906072743 | 74 | 103 | 1.7 | 3.5 | 0.00 | 0.00 | 0.00 | 70 | 944.1 |
| 20260906072236 | 74 | 96 | 1.7 | 2.6 | 0.00 | 0.00 | 0.00 | 73 | 944.2 |
| 20260906071730 | 74 | 113 | 0.9 | 2.6 | 0.00 | 0.00 | 0.00 | 71 | 944.2 |
| 20260906071224 | 74 | 102 | 0.0 | 1.7 | 0.00 | 0.00 | 0.00 | 71 | 944.2 |
| 20260906070718 | 74 | 242 | 0.0 | 0.0 | 0.00 | 0.00 | 0.00 | 69 | 944.2 |
| 20260906070212 | 75 | 242 | 0.0 | 1.7 | 0.00 | 0.00 | 0.00 | 68 | 944.2 |
| 20260906065926 | 75 | 95 | 0.9 | 2.6 | 0.00 | 0.00 | 0.00 | 67 | 944.2 |
| 20260906065201 | 76 | 95 | 1.7 | 2.6 | 0.00 | 0.00 | 0.00 | 67 | 944.3 |
| 20260906064655 | 76 | 101 | 1.7 | 3.5 | 0.00 | 0.00 | 0.00 | 66 | 944.3 |
| 20260906064149 | 75 | 91 | 1.7 | 3.5 | 0.00 | 0.00 | 0.00 | 67 | 944.4 |
| 20260906063643 | 75 | 107 | 0.0 | 3.5 | 0.00 | 0.00 | 0.00 | 68 | 944.4 |
| 20260906063355 | 75 | 142 | 0.0 | 1.7 | 0.00 | 0.00 | 0.00 | 67 | 944.5 |
| 20260906062631 | 75 | 150 | 0.9 | 2.6 | 0.00 | 0.00 | 0.00 | 67 | 944.5 |
| 20260906062124 | 75 | 148 | 0.9 | 3.5 | 0.00 | 0.00 | 0.00 | 67 | 944.6 |
| 20260906061618 | 76 | 116 | 0.9 | 3.5 | 0.00 | 0.00 | 0.00 | 68 | 944.6 |
| 20260906061112 | 76 | 104 | 0.0 | 0.0 | 0.00 | 0.00 | 0.00 | 68 | 944.6 |
| 20260906060613 | 76 | 104 | 0.0 | 0.0 | 0.00 | 0.00 | 0.00 | 65 | 944.6 |
| 20260906060113 | 77 | 104 | 0.0 | 0.0 | 0.00 | 0.00 | 0.00 | 64 | 944.6 |
| 20260906055612 | 77 | 104 | 0.0 | 0.0 | 0.00 | 0.00 | 0.00 | 65 | 944.6 |
| 20260906055111 | 78 | 104 | 0.9 | 2.6 | 0.00 | 0.00 | 0.00 | 62 | 944.6 |
| 20260906054609 | 78 | 104 | 1.7 | 2.6 | 0.00 | 0.00 | 0.00 | 61 | 944.6 |
| 20260906054109 | 78 | 108 | 1.7 | 2.6 | 0.00 | 0.00 | 0.00 | 60 | 944.5 |
| 20260906053608 | 79 | 112 | 1.7 | 3.5 | 0.00 | 0.00 | 0.00 | 60 | 944.5 |
| 20260906053109 | 79 | 110 | 2.6 | 3.5 | 0.00 | 0.00 | 0.00 | 58 | 944.5 |
| 20260906052609 | 79 | 98 | 2.6 | 3.5 | 0.00 | 0.00 | 0.00 | 58 | 944.4 |
| 20260906052108 | 79 | 111 | 2.6 | 3.5 | 0.00 | 0.00 | 0.00 | 58 | 944.4 |
| 20260906051831 | 79 | 102 | 2.6 | 3.5 | 0.00 | 0.00 | 0.00 | 59 | 944.4 |
| 20260906051108 | 79 | 82 | 2.6 | 3.5 | 0.00 | 0.00 | 0.00 | 59 | 944.4 |
| 20260906050609 | 78 | 105 | 2.6 | 3.5 | 0.00 | 0.00 | 0.00 | 60 | 944.4 |
| 20260906050109 | 79 | 118 | 2.6 | 3.5 | 0.00 | 0.00 | 0.00 | 62 | 944.4 |
| 20260906045831 | 79 | 141 | 1.7 | 2.6 | 0.00 | 0.00 | 0.00 | 60 | 944.4 |
| 20260906045331 | 79 | 136 | 1.7 | 2.6 | 0.00 | 0.00 | 0.00 | 62 | 944.4 |
| 20260906044607 | 80 | 134 | 1.7 | 2.6 | 0.00 | 0.00 | 0.00 | 62 | 944.4 |
| 20260906044108 | 80 | 135 | 1.7 | 3.5 | 0.00 | 0.00 | 0.00 | 58 | 944.4 |
| 20260906043608 | 80 | 147 | 1.7 | 3.5 | 0.00 | 0.00 | 0.00 | 56 | 944.5 |
| 20260906043107 | 80 | 128 | 1.7 | 3.5 | 0.00 | 0.00 | 0.00 | 57 | 944.5 |
| 20260906042607 | 81 | 134 | 1.7 | 3.5 | 0.00 | 0.00 | 0.00 | 57 | 944.4 |
| 20260906042334 | 81 | 119 | 1.7 | 3.5 | 0.00 | 0.00 | 0.00 | 58 | 944.4 |
| 20260906041608 | 82 | 105 | 1.7 | 3.5 | 0.00 | 0.00 | 0.00 | 56 | 944.4 |
| 20260906041108 | 82 | 116 | 1.7 | 3.5 | 0.00 | 0.00 | 0.00 | 57 | 944.4 |
| 20260906040607 | 82 | 107 | 2.6 | 5.2 | 0.00 | 0.00 | 0.00 | 55 | 944.3 |
| 20260906040331 | 83 | 94 | 2.6 | 5.2 | 0.00 | 0.00 | 0.00 | 53 | 944.4 |
| 20260906035608 | 83 | 104 | 2.6 | 5.2 | 0.00 | 0.00 | 0.00 | 52 | 944.3 |
| 20260906035108 | 83 | 105 | 2.6 | 5.2 | 0.00 | 0.00 | 0.00 | 52 | 944.3 |
| 20260906034607 | 83 | 112 | 2.6 | 5.2 | 0.00 | 0.00 | 0.00 | 52 | 944.2 |
| 20260906034108 | 83 | 101 | 2.6 | 3.5 | 0.00 | 0.00 | 0.00 | 51 | 944.2 |
| 20260906033608 | 83 | 78 | 2.6 | 3.5 | 0.00 | 0.00 | 0.00 | 51 | 944.2 |
| 20260906033107 | 83 | 115 | 2.6 | 5.2 | 0.00 | 0.00 | 0.00 | 52 | 944.1 |
| 20260906032601 | 84 | 108 | 2.6 | 5.2 | 0.00 | 0.00 | 0.00 | 50 | 944.0 |
| 20260906032321 | 84 | 110 | 2.6 | 5.2 | 0.00 | 0.00 | 0.00 | 50 | 943.9 |
| 20260906031548 | 84 | 97 | 2.6 | 3.5 | 0.00 | 0.00 | 0.00 | 49 | 943.8 |
| 20260906031043 | 85 | 109 | 2.6 | 5.2 | 0.00 | 0.00 | 0.00 | 50 | 943.8 |
| 20260906030806 | 85 | 100 | 2.6 | 5.2 | 0.00 | 0.00 | 0.00 | 48 | 943.7 |
| 20260906030031 | 85 | 101 | 2.6 | 6.1 | 0.00 | 0.00 | 0.00 | 48 | 943.6 |
| 20260906025523 | 86 | 86 | 2.6 | 6.1 | 0.00 | 0.00 | 0.00 | 47 | 943.5 |
| 20260906025241 | 86 | 113 | 3.5 | 6.1 | 0.00 | 0.00 | 0.00 | 46 | 943.5 |
| 20260906024511 | 86 | 85 | 3.5 | 7.0 | 0.00 | 0.00 | 0.00 | 46 | 943.4 |
| 20260906024005 | 87 | 94 | 3.5 | 7.0 | 0.00 | 0.00 | 0.00 | 46 | 943.4 |
| 20260906023459 | 87 | 92 | 3.5 | 6.1 | 0.00 | 0.00 | 0.00 | 46 | 943.2 |
| 20260906023219 | 87 | 98 | 3.5 | 5.2 | 0.00 | 0.00 | 0.00 | 46 | 943.2 |
| 20260906022447 | 88 | 84 | 3.5 | 7.0 | 0.00 | 0.00 | 0.00 | 45 | 943.2 |
| 20260906021941 | 88 | 93 | 4.3 | 7.0 | 0.00 | 0.00 | 0.00 | 44 | 943.0 |
| 20260906021652 | 89 | 102 | 4.3 | 7.8 | 0.00 | 0.00 | 0.00 | 44 | 943.0 |
| 20260906020928 | 89 | 103 | 4.3 | 7.8 | 0.00 | 0.00 | 0.00 | 43 | 942.9 |
| 20260906020648 | 89 | 117 | 4.3 | 7.0 | 0.00 | 0.00 | 0.00 | 43 | 942.9 |
| 20260906015917 | 90 | 102 | 5.2 | 7.8 | 0.00 | 0.00 | 0.00 | 42 | 942.8 |
| 20260906015411 | 90 | 110 | 5.2 | 7.8 | 0.00 | 0.00 | 0.00 | 42 | 942.7 |
| 20260906014904 | 90 | 118 | 5.2 | 7.8 | 0.00 | 0.00 | 0.00 | 41 | 942.7 |
| 20260906014625 | 90 | 155 | 5.2 | 8.7 | 0.00 | 0.00 | 0.00 | 41 | 942.7 |
| 20260906013853 | 91 | 106 | 5.2 | 8.7 | 0.00 | 0.00 | 0.00 | 41 | 942.5 |
| 20260906013347 | 91 | 120 | 5.2 | 9.6 | 0.00 | 0.00 | 0.00 | 40 | 942.5 |
| 20260906012841 | 91 | 82 | 5.2 | 9.6 | 0.00 | 0.00 | 0.00 | 40 | 942.4 |
| 20260906012334 | 91 | 108 | 5.2 | 9.6 | 0.00 | 0.00 | 0.00 | 40 | 942.3 |
| 20260906011828 | 92 | 103 | 6.1 | 11.3 | 0.00 | 0.00 | 0.00 | 40 | 942.2 |
| 20260906011323 | 92 | 109 | 7.0 | 12.2 | 0.00 | 0.00 | 0.00 | 39 | 942.2 |
| 20260906010817 | 92 | 110 | 7.0 | 12.2 | 0.00 | 0.00 | 0.00 | 39 | 942.1 |
| 20260906010311 | 92 | 153 | 6.1 | 10.4 | 0.00 | 0.00 | 0.00 | 38 | 942.1 |
| 20260906005804 | 93 | 90 | 7.0 | 12.2 | 0.00 | 0.00 | 0.00 | 38 | 942.0 |
| 20260906005259 | 93 | 92 | 7.8 | 12.2 | 0.00 | 0.00 | 0.00 | 38 | 941.9 |
| 20260906005012 | 93 | 103 | 8.7 | 13.0 | 0.00 | 0.00 | 0.00 | 38 | 942.0 |
| 20260906004247 | 94 | 102 | 8.7 | 15.6 | 0.00 | 0.00 | 0.00 | 38 | 941.9 |
| 20260906003741 | 94 | 125 | 8.7 | 15.6 | 0.00 | 0.00 | 0.00 | 38 | 941.9 |
| 20260906003234 | 94 | 111 | 7.8 | 15.6 | 0.00 | 0.00 | 0.00 | 38 | 941.9 |
| 20260906002728 | 95 | 88 | 7.0 | 12.2 | 0.00 | 0.00 | 0.00 | 38 | 941.9 |
| 20260906002222 | 95 | 138 | 7.0 | 12.2 | 0.00 | 0.00 | 0.00 | 38 | 941.9 |
| 20260906001948 | 95 | 112 | 7.8 | 13.0 | 0.00 | 0.00 | 0.00 | 38 | 941.8 |
| 20260906000704 | 96 | 112 | 7.8 | 13.0 | 0.00 | 0.00 | 0.00 | 38 | 941.8 |
| 20260906000158 | 96 | 106 | 7.8 | 13.0 | 0.00 | 0.00 | 0.00 | 38 | 941.7 |
| 20260905235652 | 96 | 120 | 7.8 | 13.0 | 0.00 | 0.00 | 0.00 | 38 | 941.7 |
| 20260905235146 | 97 | 92 | 7.8 | 13.0 | 0.00 | 0.00 | 0.00 | 37 | 941.7 |
| 20260905234905 | 97 | 116 | 7.8 | 13.0 | 0.00 | 0.00 | 0.00 | 37 | 941.7 |
| 20260905234135 | 97 | 73 | 7.8 | 13.0 | 0.00 | 0.00 | 0.00 | 37 | 941.6 |
| 20260905233853 | 97 | 102 | 8.7 | 13.9 | 0.00 | 0.00 | 0.00 | 37 | 941.5 |
| 20260905233123 | 97 | 134 | 8.7 | 13.9 | 0.00 | 0.00 | 0.00 | 37 | 941.4 |
| 20260905232617 | 97 | 98 | 7.8 | 13.9 | 0.00 | 0.00 | 0.00 | 37 | 941.4 |
| 20260905232110 | 98 | 101 | 7.0 | 12.2 | 0.00 | 0.00 | 0.00 | 36 | 941.3 |
| 20260905231604 | 98 | 121 | 6.1 | 10.4 | 0.00 | 0.00 | 0.00 | 36 | 941.3 |
| 20260905231058 | 98 | 111 | 6.1 | 12.2 | 0.00 | 0.00 | 0.00 | 36 | 941.3 |
| 20260905230553 | 98 | 172 | 6.1 | 13.0 | 0.00 | 0.00 | 0.00 | 36 | 941.3 |
| 20260905230047 | 98 | 112 | 5.2 | 13.0 | 0.00 | 0.00 | 0.00 | 38 | 941.3 |